Regional Weather Roundup
Issued by NWS

Home | Current Version | Previous Version | Graphics & Text | Print | Product List | Glossary On
Versions: 1 2 3 4 5 6 7 8 9 10 11 12 13 14 15 16 17 18 19 20 21 22 23 24 25 26 27 28 29 30 31 32 33 34 35 36 37 38 39 40 41 42 43 44 45 46 47 48 49 50
000
ASUS43 KLOT 311308
RWRIL

ILLINOIS REGIONAL WEATHER ROUNDUP
NATIONAL WEATHER SERVICE CHICAGO/ROMEOVILLE IL
800 AM CDT WED AUG 31 2016

NOTE: "FAIR" INDICATES FEW OR NO CLOUDS BELOW 12,000 FEET WITH NO
SIGNIFICANT WEATHER AND/OR OBSTRUCTIONS TO VISIBILITY.

* THESE STATIONS ARE NOT UNDER NWS QUALITY CONTROL. THEY ALSO MAY NOT
  REPORT WEATHER SUCH AS PRECIPITATION OR FOG.

ILZ001-002-007-009-015-016-024-311400-
NORTHWEST ILLINOIS

CITY           SKY/WX    TMP DP  RH WIND       PRES   REMARKS
MOLINE         CLOUDY    70  63  78 N3        30.10R
STERLING*      CLOUDY    67  65  93 NE9       30.10R
SAVANNA*       CLOUDY    66  63  90 N5        30.11R
$$

ILZ003-004-008-010-011-017-018-311400-
NORTH CENTRAL ILLINOIS

CITY           SKY/WX    TMP DP  RH WIND       PRES   REMARKS
ROCKFORD       CLOUDY    68  62  81 NE9       30.11S
FREEPORT*      CLOUDY    64  63  96 N3        30.13R
ROCHELLE*      CLOUDY    67  65  94 N9        30.10R
DE KALB*       PTSUNNY   67  63  86 N9        30.10R
$$

ILZ005-006-012>014-019>023-311400-
NORTHEAST ILLINOIS

CITY           SKY/WX    TMP DP  RH WIND       PRES   REMARKS
CHICAGO-OHARE  PTSUNNY   69  62  78 N8        30.07S
CHICAGO-MIDWAY CLOUDY    71  64  78 N10       30.06R
AURORA         CLOUDY    69  64  84 NE8       30.08R
LANSING*       CLOUDY    72  70  92 N7        30.04F
JOLIET*        CLOUDY    73  68  87 N9        30.06S
WAUKEGAN       SUNNY     67  60  78 N8        30.07S
DUPAGE AIRPORT PTSUNNY   68  62  81 N6        30.07S
KANKAKEE*      CLOUDY    72  69  90 N5        30.06S
WHEELING       MOSUNNY   68  62  81 N10       30.08R
MORRIS*        CLOUDY    71  68  93 CALM      30.05S
ROMEOVILLE*    CLOUDY    70  69  96 N8        30.06S
NORTHERLY ISL    N/A     71  65  81 N14         N/A
$$

LMZ740>746-311400-
SOUTHERN LAKE MICHIGAN

STATION/POSITION SKY/WX   TEMP    WIND        PRES    VSBY  WAVE
                          AIR SEA DIR/SP/G                  HT/PER
                          (F)     (DEG/KT/KT) (MB)    (MI)  (FT/S)
SOUTHERN BUOY              71 75   30/ 17/ 21 1016.6          4/ 6
WILMETTE HARBOR            69 71   20/ 17/ 21   N/A           5/ 5
HARRISON CRIB              71     330/ 17/ 19   N/A
BURNHAM HARBOR             71     320/  8/ 14   N/A
CALUMET HARBOR             71     320/  8/ 13 1017.1R
BURNS HARBOR               74     350/  5/ 12 1017.6R
MICHIGAN CITY              72     330/ 10/ 10   N/A
MICHIGAN CITY 6N           74 72  340/ 10/ 12   N/A           2/ 3
ST. JOSEPH                 74 74  330/  8/  8 1016.4R         1/ 3
$$

ILZ025>027-034>036-040-047-049-050-058-095>099-311400-
WEST-CENTRAL ILLINOIS

CITY           SKY/WX    TMP DP  RH WIND       PRES   REMARKS
QUINCY         CLOUDY    72  71  97 N6        30.08S FOG
GALESBURG*     PTSUNNY   69  67  96 N7        30.09S
MACOMB*        PTSUNNY   70  69  97 N6        30.10S
JACKSONVILLE*  PTSUNNY   71  70  97 CALM      30.07S FOG
PITTSFIELD*    CLOUDY    71  71  99 CALM      30.09R FOG
$$

ILZ028>032-037-038-041>044-048-051>054-059>061-311400-
CENTRAL ILLINOIS

CITY           SKY/WX    TMP DP  RH WIND       PRES   REMARKS
PONTIAC        CLOUDY    71  71 100 N5        30.07R FOG
BLOOMINGTON    CLOUDY    71  69  93 N5        30.07S
DECATUR        CLOUDY    74  70  87 N3        30.06S
PEORIA         CLOUDY    70  70 100 N3        30.07S
LACON*         CLOUDY    70  68  94 N3        30.06S
LINCOLN*       CLOUDY    72  72 100 CALM      30.06S
SPRINGFIELD    CLOUDY    73  71  93 CALM      30.06S FOG
TAYLORVILLE    CLOUDY    71  71 100 N5        30.06S FOG
$$

ILZ033-039-045-046-055>057-062-063-311400-
EAST-CENTRAL ILLINOIS

CITY           SKY/WX    TMP DP  RH WIND       PRES   REMARKS
CHAMPAIGN      MOSUNNY   71  70  96 N3        30.06S
RANTOUL*       MOSUNNY   73  69  88 N3        30.06R
MATTOON        FOG       71  70  96 NW5       30.04S VSB<1/4
PARIS*         FOG       70  70 100 CALM      30.05S VSB 1/4
$$

ILZ079-100>102-311400-
SOUTHWEST ILLINOIS

CITY           SKY/WX    TMP DP  RH WIND       PRES   REMARKS
ALTON          MOSUNNY   70  70 100 CALM      30.06F
BELLEVILLE     CLOUDY    73  73  99 VRB1      30.05S FOG
CAHOKIA*       MOSUNNY   73  71  93 CALM      30.06S FOG
SPARTA*        FOG       70  70 100 N3        30.07S VSB 1/2
$$

ILZ064>066-069>071-074>076-080>082-084>086-088>090-092>094-311400-
SOUTH-CENTRAL ILLINOIS

CITY           SKY/WX    TMP DP  RH WIND       PRES   REMARKS
CARBONDALE     FOG       71  70  96 NW8       30.05R VSB 1/2
CAIRO*         SUNNY     73  72  96 N3        30.03S
EFFINGHAM*     FOG       71  71 100 W3        30.06S VSB 1/4
MT. VERNON     CLOUDY    73  66  78 CALM      30.06S
CENTRALIA*     FOG       73  73 100 NW3       30.05S VSB 3/4
SALEM*         FOG       73  71  95 CALM      30.05F VSB<1/4
METROPOLIS*    SUNNY     74  72  92 N5        30.04R
$$

ILZ067-068-072-073-078-083-087-091-311400-
SOUTHEAST ILLINOIS

CITY           SKY/WX    TMP DP  RH WIND       PRES   REMARKS
LAWRENCEVILLE  MOSUNNY   74  74 100 NW5       30.04S
FLORA*         FOG       72  72  98 NW5       30.05S VSB 1/4
FAIRFIELD*       N/A     73  71  96 N5        30.04S
HARRISBURG*    SUNNY     74  72  93 N3        30.04S
ROBINSON*      MOSUNNY   71  71 100 CALM      30.05S FOG
CARMI*         MOSUNNY   73  72  97 NW5       30.03F
$$

ABBREVIATIONS USED IN REMARKS
   TC - TEMPERATURE IN CELSIUS
  WCI - WIND CHILL INDEX
   HX - HEAT INDEX
  VSB - VISIBILITY
$$





USA.gov is the U.S. government's official web portal to all federal, state and local government web resources and services.